Wind_Speed
27 25 25 26 26 27 27 28 28 26 26 25 23 24 24 25 25 25 24 24 24 24 23 22 22 22 23 24 24 25 25 25 24 25 24 24 23 22 22 23 23 23 22 22
27 26 26 27 26 25 26 28 28 27 28 27 25 26 26 27 27 25 24 24 24 25 24 23 23 23 22 23 25 25 25 26 25 25 25 24 23 22 22 23 23 23 23 24
27 27 28 28 26 26 26 27 28 29 29 28 27 29 28 28 27 27 27 27 27 26 26 25 25 25 24 24 24 25 26 26 24 24 23 22 22 22 22 22 22 22 22 21
27 27 27 26 26 25 26 28 28 30 30 30 29 29 29 27 28 28 28 28 28 27 26 26 26 25 25 25 25 25 25 25 25 24 23 22 22 22 21 21 21 20 20 20
25 27 27 26 25 24 25 27 27 29 30 31 31 30 29 28 28 28 27 27 27 26 26 25 26 26 25 25 25 25 24 24 25 24 23 23 22 22 22 22 21 21 21 21
26 26 26 26 25 25 26 27 27 29 30 31 29 29 29 28 27 27 27 27 27 27 26 26 25 26 27 26 26 25 24 24 25 24 23 23 22 22 22 22 21 22 22 22
27 27 27 26 25 25 26 27 28 29 30 31 29 28 28 28 28 27 27 27 27 27 27 26 26 26 27 27 26 25 25 25 24 24 23 23 22 22 22 22 22 22 22 22
26 27 27 26 27 27 27 28 29 28 29 29 29 29 29 29 28 27 27 28 28 28 27 27 27 27 27 26 26 25 24 24 24 24 23 23 23 22 22 22 21 21 21 21
25 26 26 26 27 27 28 28 29 29 29 29 29 31 31 29 28 28 28 28 29 28 27 27 26 27 27 26 26 25 25 24 24 24 23 23 23 22 22 22 21 21 21 21
25 26 26 26 26 25 27 29 29 29 29 29 29 30 30 29 28 27 27 27 28 27 26 26 26 26 25 25 25 25 25 25 25 25 24 23 23 22 21 20 20 20 20 19
24 25 26 26 25 24 25 26 26 28 28 28 28 28 28 28 28 27 27 26 26 25 25 25 25 25 24 24 24 24 24 25 25 26 24 23 22 22 21 20 20 20 19 19
22 23 24 25 24 24 23 23 24 25 26 26 26 26 26 26 26 27 27 27 25 25 25 25 26 25 25 24 24 24 24 25 25 25 23 22 21 21 20 20 19 19 19 19
22 22 24 24 23 22 21 22 23 24 24 24 24 24 25 25 24 26 25 24 24 24 24 25 25 25 24 24 25 25 24 25 24 24 22 21 21 21 20 20 20 19 19 18
21 22 23 22 22 22 21 21 22 22 23 24 24 24 24 24 24 24 24 24 24 24 24 25 26 25 25 25 25 25 25 25 24 23 23 21 21 21 21 21 20 20 19 19
20 20 20 19 19 19 20 20 19 19 20 22 22 23 24 24 23 22 22 23 23 24 24 25 26 26 26 26 25 25 25 25 24 23 23 22 22 22 22 22 22 21 21 21
17 17 18 17 16 17 17 18 18 18 18 20 20 21 22 22 22 22 22 23 23 22 23 24 24 24 25 24 25 25 24 24 24 24 24 23 23 23 24 24 23 23 23 23
15 15 16 17 17 17 17 17 18 18 18 18 19 20 20 21 21 22 22 22 22 22 22 23 23 23 23 23 23 23 23 23 23 23 24 24 24 24 24 25 25 25 24 24
15 15 16 16 16 17 17 17 17 17 16 17 17 17 18 19 20 21 22 22 21 21 22 22 23 23 22 22 22 22 22 23 23 24 24 24 24 24 25 25 25 25 25 25
14 15 16 16 17 17 17 17 17 17 16 16 17 17 17 18 20 21 21 21 20 20 21 22 22 22 22 22 23 23 23 23 24 23 23 24 24 25 25 26 27 26 25 25
14 14 15 15 16 16 16 16 16 16 16 17 17 17 16 17 19 19 19 19 19 19 19 19 19 20 20 21 22 22 22 23 23 24 24 24 24 25 26 26 27 27 28 27
13 14 14 15 15 15 15 16 16 16 17 17 17 17 17 17 17 17 17 18 18 19 19 18 18 19 20 20 20 21 21 22 23 23 24 24 24 25 25 26 27 28 28 28
12 13 14 14 15 15 16 16 17 17 17 17 17 17 17 17 16 17 18 18 19 20 20 19 19 19 20 20 21 21 22 22 22 23 23 23 24 24 25 26 27 27 27 27
13 14 14 15 15 15 16 16 17 18 18 18 18 18 18 18 18 19 19 20 20 19 19 19 20 20 20 20 21 22 22 23 23 24 23 23 23 24 25 25 26 26 27 27
13 14 14 14 14 15 15 16 17 17 18 18 18 18 19 19 19 19 19 20 20 19 19 19 20 21 21 22 22 22 22 23 23 24 24 24 24 25 25 25 25 26 26 27
13 13 14 14 14 14 14 15 16 16 16 17 17 18 18 19 19 19 19 19 19 19 19 20 20 21 22 22 22 23 23 24 24 24 25 24 25 25 26 26 26 27 27 28
13 13 13 14 14 14 14 15 15 16 16 16 17 17 17 18 18 19 18 18 19 19 19 20 21 21 22 23 24 24 24 24 25 25 25 25 26 26 27 27 27 27 28 28
12 13 13 13 14 14 14 15 15 16 16 16 17 17 17 17 18 18 18 19 19 20 20 20 21 21 21 22 22 22 22 23 23 24 25 25 25 25 26 26 26 26 26 26
Wind_Direction
241 239 239 242 243 243 243 245 245 249 251 251 256 259 262 265 264 262 261 261 261 263 264 268 269 268 268 269 268 268 269 271 272 273 273 270 267 266 267 266 267 268 269 270
243 243 243 242 243 245 247 249 248 248 249 248 251 256 259 262 260 259 261 262 262 263 263 266 268 268 270 269 268 268 270 271 272 271 271 268 266 268 268 267 268 269 269 269
245 243 246 247 245 246 246 248 249 250 252 252 254 255 255 257 258 260 262 264 264 264 265 267 268 269 270 271 272 272 270 272 273 271 271 268 266 267 267 267 270 270 270 269
247 247 249 246 248 249 249 248 250 250 252 252 253 255 256 257 257 258 261 264 264 264 263 264 267 270 269 269 270 272 272 271 272 272 270 269 269 270 271 271 270 268 269 269
251 250 251 250 249 249 252 252 250 250 250 251 254 257 256 254 255 258 259 261 263 264 265 266 266 269 270 268 270 272 271 270 270 271 271 271 271 271 271 270 267 267 270 270
249 253 252 252 253 252 252 254 250 249 251 252 256 254 253 254 256 258 258 258 260 262 265 267 268 268 270 270 271 272 272 271 270 270 271 270 270 270 268 268 269 269 269 270
248 252 253 251 251 251 251 250 250 252 252 252 254 254 254 256 257 258 257 257 258 261 265 267 269 270 269 271 271 271 270 271 270 269 269 268 268 268 268 267 269 270 270 271
250 252 254 252 251 252 254 254 253 253 254 255 255 256 257 257 257 256 255 256 258 261 265 267 268 269 269 270 269 270 270 270 270 268 267 267 267 266 267 268 268 268 268 269
249 252 253 254 253 253 254 255 256 255 254 258 257 254 256 256 254 256 256 257 259 262 265 265 266 267 266 266 267 268 269 268 268 268 268 266 265 266 265 266 267 268 268 270
249 250 252 253 252 252 253 255 256 253 253 254 256 256 255 255 255 256 258 259 260 261 264 264 265 264 263 264 266 267 267 267 266 266 265 264 263 263 264 265 266 267 270 272
252 253 255 255 256 257 258 257 257 256 255 257 258 258 257 255 255 257 258 258 259 259 259 261 263 263 263 263 264 265 266 266 265 265 263 263 265 262 261 264 266 268 271 272
258 256 256 259 261 261 260 260 259 257 256 256 257 256 256 256 257 258 258 260 260 258 258 259 260 260 261 262 262 264 264 263 263 263 262 263 264 264 263 265 266 266 268 270
259 260 259 261 262 264 263 264 263 261 259 257 257 257 258 259 259 256 258 260 260 258 259 259 258 259 260 261 261 262 264 265 264 262 261 262 263 264 264 264 264 264 266 268
259 261 262 262 262 264 266 265 263 261 258 257 256 256 258 259 260 257 255 257 259 259 261 261 260 260 261 263 262 262 264 264 262 260 259 259 260 260 262 263 264 266 269 269
258 258 259 260 264 264 265 265 263 261 259 256 257 257 257 258 259 258 257 257 258 259 260 262 261 261 262 263 263 263 263 261 258 258 258 258 259 258 261 263 264 265 268 270
257 257 256 259 264 266 265 264 263 263 263 260 259 257 256 257 258 259 259 259 260 261 261 262 263 262 262 262 261 262 262 260 259 258 258 257 258 259 262 264 265 266 267 271
259 260 259 259 263 265 264 264 262 263 264 262 262 259 256 258 259 259 261 261 259 259 261 261 262 262 260 259 260 259 259 258 259 260 260 259 259 261 263 264 265 266 268 271
261 261 261 262 263 265 266 266 265 265 265 263 261 260 259 259 260 258 258 259 259 260 261 260 262 261 261 260 259 259 260 260 260 261 261 261 261 263 265 267 268 269 270 270
262 263 263 265 267 267 267 266 265 264 264 264 264 265 265 262 261 260 259 260 261 264 262 261 261 262 263 262 261 261 262 261 260 260 262 262 262 264 266 266 266 269 271 271
264 266 268 271 270 269 267 266 266 264 262 263 264 268 269 265 261 260 260 261 264 265 264 264 263 263 263 264 263 262 261 260 261 262 264 265 265 265 265 266 266 268 270 271
268 269 271 273 273 271 268 266 266 267 265 264 264 268 270 268 266 264 263 264 264 264 265 264 264 265 265 264 265 265 264 263 262 263 264 264 266 267 267 267 267 267 268 270
272 273 274 275 274 272 270 268 268 269 270 269 270 271 271 269 268 269 268 266 265 265 264 265 267 269 268 265 265 266 265 265 265 265 266 267 269 270 269 269 269 269 269 270
279 278 277 276 274 274 274 272 270 271 270 272 273 272 271 271 271 272 269 266 265 266 265 264 266 268 268 266 265 266 266 266 265 266 267 269 270 271 270 269 269 269 270 271
284 281 280 279 277 277 277 275 272 272 272 273 273 272 272 273 274 273 272 269 267 265 264 265 266 266 266 266 267 267 268 268 268 268 268 269 270 270 270 270 270 271 271 271
283 283 284 283 281 281 279 276 273 272 275 277 276 274 271 270 273 277 276 272 269 268 269 269 269 268 268 269 270 270 270 269 268 268 269 270 272 272 272 271 271 272 272 272
282 283 283 283 282 282 279 276 274 274 276 277 277 277 276 275 276 278 278 276 273 272 273 274 272 271 271 273 272 272 271 270 270 269 269 270 272 274 274 274 275 275 274 273
285 284 284 284 283 281 278 276 277 277 277 277 277 277 277 277 277 278 278 277 276 276 277 278 277 277 277 277 276 275 274 273 271 270 270 272 273 274 274 275 276 275 273 273
Height
5757 5759 5761 5763 5765 5767 5768 5770 5772 5774 5774 5776 5775 5775 5777 5777 5778 5779 5780 5780 5780 5781 5782 5782 5782 5783 5783 5783 5783 5783 5783 5784 5784 5784 5784 5784 5784 5785 5785 5785 5786 5786 5786 5786
5750 5752 5753 5754 5757 5760 5761 5763 5765 5767 5767 5768 5768 5769 5770 5771 5772 5773 5774 5774 5775 5775 5775 5776 5776 5776 5776 5777 5777 5777 5777 5777 5777 5777 5778 5778 5778 5779 5779 5779 5780 5780 5780 5780
5743 5745 5745 5747 5750 5752 5753 5755 5757 5759 5761 5761 5761 5762 5763 5764 5766 5767 5768 5768 5769 5769 5769 5770 5770 5770 5770 5771 5770 5770 5770 5770 5770 5771 5771 5772 5772 5773 5773 5773 5773 5773 5774 5774
5735 5737 5737 5743 5743 5744 5746 5748 5750 5751 5752 5753 5754 5754 5756 5758 5759 5760 5761 5762 5762 5762 5763 5764 5764 5764 5764 5764 5764 5764 5764 5764 5764 5764 5765 5765 5766 5766 5767 5767 5767 5768 5768 5768
5729 5730 5731 5734 5736 5737 5738 5740 5742 5743 5744 5745 5746 5747 5748 5750 5752 5753 5754 5755 5755 5755 5756 5758 5758 5757 5757 5758 5758 5757 5757 5758 5758 5758 5759 5759 5760 5760 5761 5761 5761 5761 5762 5762
5722 5723 5725 5728 5729 5729 5731 5732 5734 5734 5736 5737 5738 5740 5741 5742 5744 5745 5746 5748 5748 5749 5750 5751 5751 5751 5751 5751 5751 5751 5751 5751 5751 5752 5752 5753 5753 5754 5754 5754 5754 5755 5755 5756
5716 5716 5717 5720 5721 5722 5725 5725 5726 5726 5727 5729 5730 5732 5734 5735 5736 5737 5738 5740 5741 5742 5743 5743 5744 5744 5744 5744 5744 5744 5744 5744 5745 5745 5746 5746 5747 5747 5748 5748 5748 5748 5749 5749
5709 5710 5713 5713 5714 5715 5716 5716 5717 5718 5720 5721 5723 5725 5726 5727 5727 5729 5731 5732 5734 5735 5735 5736 5736 5736 5737 5737 5737 5737 5737 5738 5738 5739 5739 5740 5740 5741 5741 5742 5742 5742 5742 5743
5703 5705 5705 5706 5707 5708 5709 5709 5710 5712 5713 5714 5715 5717 5718 5719 5721 5723 5724 5725 5726 5727 5728 5728 5729 5729 5729 5730 5730 5730 5731 5731 5732 5733 5733 5733 5734 5734 5735 5735 5735 5736 5736 5736
5696 5697 5697 5698 5698 5700 5701 5702 5702 5704 5706 5707 5708 5710 5711 5713 5714 5715 5717 5717 5718 5719 5720 5721 5722 5722 5722 5723 5723 5724 5724 5724 5724 5725 5726 5726 5727 5728 5728 5729 5729 5729 5730 5730
5689 5690 5690 5691 5692 5693 5694 5695 5695 5696 5698 5699 5701 5702 5703 5705 5706 5708 5709 5710 5710 5711 5713 5714 5714 5715 5715 5716 5716 5717 5717 5717 5718 5718 5719 5719 5720 5721 5722 5722 5723 5723 5723 5724
5682 5683 5684 5685 5686 5686 5686 5687 5688 5689 5690 5692 5693 5695 5696 5697 5699 5700 5701 5702 5703 5704 5706 5707 5707 5708 5709 5709 5710 5711 5711 5711 5711 5711 5712 5712 5713 5715 5715 5716 5716 5717 5718 5718
5676 5677 5678 5679 5680 5679 5680 5681 5681 5682 5683 5685 5686 5687 5689 5690 5691 5692 5694 5695 5696 5697 5699 5699 5700 5701 5701 5702 5703 5703 5704 5704 5704 5704 5705 5706 5707 5708 5709 5710 5710 5711 5712 5712
5671 5671 5672 5673 5674 5674 5674 5674 5675 5675 5677 5678 5679 5681 5682 5683 5684 5685 5687 5689 5690 5691 5691 5692 5693 5694 5694 5695 5696 5696 5696 5697 5697 5698 5699 5700 5701 5702 5703 5704 5704 5705 5706 5706
5665 5665 5666 5667 5668 5668 5669 5669 5669 5669 5670 5671 5673 5674 5675 5676 5678 5679 5680 5681 5683 5683 5684 5685 5685 5686 5686 5687 5688 5688 5689 5690 5690 5691 5692 5693 5694 5695 5696 5697 5698 5699 5699 5699
5660 5661 5662 5663 5663 5663 5663 5664 5664 5664 5665 5665 5666 5667 5669 5670 5671 5672 5673 5674 5675 5676 5677 5677 5678 5678 5679 5679 5680 5680 5681 5682 5683 5684 5685 5686 5687 5688 5689 5690 5691 5692 5692 5692
5656 5656 5657 5658 5658 5658 5658 5659 5659 5659 5660 5660 5661 5661 5663 5664 5665 5665 5666 5667 5668 5669 5670 5670 5671 5671 5672 5672 5672 5673 5674 5675 5676 5677 5678 5679 5680 5681 5682 5683 5683 5684 5685 5685
5652 5652 5653 5653 5654 5654 5654 5654 5654 5655 5655 5656 5656 5656 5657 5658 5658 5659 5660 5660 5661 5662 5663 5663 5664 5664 5664 5665 5665 5666 5666 5667 5668 5669 5670 5671 5672 5673 5674 5674 5675 5676 5677 5677
5648 5649 5649 5649 5649 5649 5649 5650 5650 5651 5651 5651 5651 5652 5652 5652 5653 5653 5654 5654 5655 5656 5656 5656 5657 5657 5658 5658 5658 5659 5660 5660 5661 5662 5663 5663 5664 5665 5666 5666 5667 5667 5668 5669
5645 5645 5645 5645 5645 5645 5645 5646 5646 5646 5647 5647 5647 5647 5647 5647 5647 5648 5648 5649 5649 5650 5650 5650 5650 5651 5651 5651 5652 5652 5653 5654 5654 5655 5656 5656 5656 5657 5657 5658 5659 5659 5660 5660
5641 5642 5641 5641 5641 5641 5641 5642 5642 5642 5642 5642 5642 5642 5642 5642 5642 5643 5643 5644 5644 5644 5644 5644 5645 5645 5645 5645 5645 5646 5646 5647 5647 5648 5648 5648 5649 5649 5649 5650 5650 5650 5651 5651
5638 5638 5638 5638 5637 5637 5637 5637 5638 5638 5638 5637 5637 5637 5637 5637 5637 5638 5638 5639 5639 5639 5639 5639 5639 5639 5639 5639 5639 5640 5640 5640 5640 5640 5641 5641 5641 5641 5641 5641 5642 5642 5642 5642
5634 5634 5634 5633 5633 5633 5633 5632 5633 5633 5633 5633 5632 5632 5633 5633 5633 5633 5633 5633 5633 5633 5633 5633 5633 5633 5633 5633 5633 5633 5633 5633 5633 5633 5633 5633 5633 5633 5633 5633 5633 5633 5633 5634
5630 5630 5630 5629 5629 5628 5628 5628 5628 5628 5628 5628 5628 5628 5628 5628 5628 5628 5628 5627 5627 5627 5627 5627 5627 5627 5627 5626 5626 5626 5626 5625 5625 5625 5625 5625 5625 5625 5625 5625 5624 5625 5625 5624
5627 5626 5626 5625 5624 5624 5623 5623 5623 5623 5623 5623 5622 5622 5622 5622 5622 5622 5621 5621 5621 5621 5621 5621 5620 5620 5620 5619 5619 5619 5618 5618 5618 5618 5617 5617 5617 5616 5616 5616 5616 5615 5615 5615
5623 5622 5622 5621 5620 5620 5619 5619 5618 5618 5618 5618 5617 5617 5617 5617 5616 5616 5616 5615 5615 5615 5614 5614 5613 5613 5612 5612 5611 5611 5610 5610 5609 5609 5608 5608 5608 5607 5607 5606 5606 5606 5605 5605
5619 5618 5618 5617 5616 5616 5615 5614 5614 5613 5613 5613 5612 5612 5612 5611 5611 5611 5610 5609 5609 5609 5608 5607 5606 5605 5604 5604 5603 5603 5602 5602 5601 5601 5600 5599 5599 5599 5598 5597 5597 5596 5596 5595